Home > Weather > Bad Kreuznach > Past weeks

Flag for Germany Past Weather in Bad Kreuznach, Rhineland-Palatinate, Germany — Yesterday and Last 2 Weeks

Now
67 °F

Passing clouds.


Feels Like: 67 °F
Forecast: 59 / 77 °F
Wind: 3 mph from North

Location: Wiesbaden Airport

Current Time: Jul 26, 2016 at 4:49:06 AM

Latest Report: Jul 26, 2016 at 3:58 AM


Visibility: N/A

Pressure: 30.09 "Hg

Humidity: 74%

Dew Point: 58 °F

Location of Bad KreuznachLocation

Past Weather in Bad Kreuznach — Graph

°F

Bad Kreuznach Temperature Yesterday

Maximum temperature yesterday: 84 °F (at 3:58 PM)
Minimum temperature yesterday: 67 °F (at 1:58 AM)
Average temperature yesterday: 75 °F

High & Low Weather Summary for the Past Weeks

 TemperatureHumidityPressure
High93 °F (Jul 20, 5:58 PM)88% (Jul 21, 5:58 AM)30.31 "Hg (Jul 21, 5:58 AM)
Low52 °F (Jul 16, 4:58 AM)24% (Jul 19, 4:58 PM)29.80 "Hg (Jul 11, 3:58 AM)
Average70 °F59%30.06 "Hg
* Reported Jul 11 3:58 AM — Jul 26 3:58 AM, Bad Kreuznach, Weather by CustomWeather, © 2016

Note: Actual official high and low records may vary slightly from our data, if they occured in-between our weather recording intervals... More about our weather records

Advertising

Bad Kreuznach Weather History for the Previous 24 Hours

Scroll right to see more
 ConditionsComfort  
Time TempWeatherWind HumidityBarometerVisibility
3:58 AM
Tue, Jul 26
67 °FPassing clouds.3 mph74%30.09 "HgN/A
2:58 AM69 °FOvercast.2 mph71%30.09 "HgN/A
1:58 AM68 °FOvercast.2 mph73%30.10 "HgN/A
12:58 AM67 °FClear.3 mph74%30.10 "HgN/A
11:58 PM
Mon, Jul 25
68 °FClear.6 mph69%30.09 "HgN/A
10:58 PM70 °FClear.3 mph64%30.09 "HgN/A
9:58 PM70 °FSunny.5 mph69%30.09 "HgN/A
8:58 PM77 °FSunny.6 mph51%30.07 "HgN/A
7:58 PM80 °FSunny.9 mph41%30.06 "HgN/A
6:58 PM82 °FPassing clouds.8 mph35%30.05 "HgN/A
5:58 PM82 °FScattered clouds.8 mph37%30.05 "HgN/A
4:58 PM83 °FPartly sunny.8 mph38%30.05 "HgN/A
3:58 PM84 °FPassing clouds.5 mph37%30.06 "HgN/A
2:58 PM82 °FPassing clouds.8 mph42%30.06 "HgN/A
1:58 PM80 °FBroken clouds.7 mph47%30.07 "HgN/A
12:58 PM79 °FScattered clouds.1 mph50%30.07 "HgN/A
11:58 AM78 °FScattered clouds.6 mph54%30.07 "HgN/A
10:58 AM77 °FPassing clouds.6 mph57%30.08 "HgN/A
9:58 AM74 °FSunny.5 mph63%30.08 "HgN/A
8:58 AM72 °FOvercast.2 mph69%30.08 "Hg6 mi
7:58 AM70 °FOvercast.3 mph73%30.07 "Hg6 mi
5:58 AM68 °FPassing clouds.5 mph75%30.06 "HgN/A
4:58 AM68 °FOvercast.5 mph78%30.06 "HgN/A
Weather by CustomWeather, © 2016

See weather overviewHow to use our weather pages